User: anonymous   Login
Location: Unspecified
(0.0000°N, 0.0000°E)
Time: 19:04:20
(UTC+00:00)
Language:

STARLINK-11738 [DTC] - Orbit

View from above orbital plane
View from above orbital plane
View from above satellite
View from above satellite

Ground track
Ground track

The orbit is defined by the following mean orbital elements,

1 64375U          26144.96492645 +.00000000 +00000-0 +17185-2 0 00004
2 64375  43.0028 345.2091 0002490 279.0633  80.9953 15.70907705    08
Epoch (UTC): 24 May 2026 23:09:29
Eccentricity: 0.0002490
inclination: 43.0028°
perigee height: 355 km
apogee height: 358 km
right ascension of ascending node: 345.2091°
argument of perigee: 279.0633°
revolutions per day: 15.70907705
mean anomaly at epoch: 80.9953°

The dashed part of the orbit path shows where the satellite is in the earth's shadow,  

DLR